EW8345 Weather Reports


time (UTC)temp
F
wind
direction
speed
knots
gust
knots
rain 1hr
in
rain 24hr
in
rain mn
in
humidity
%
barometer
mb
20260505004533 43 332 1.7 3.5 0.00 0.01 0.01 72 1015.2
20260505003013 43 332 0.9 3.5 0.00 0.01 0.01 72 1015.3
20260505001512 44 332 1.7 4.3 0.00 0.01 0.01 72 1015.4
20260505000020 44 332 0.0 1.7 0.00 0.01 0.01 73 1015.6
20260504234513 44 332 0.0 2.6 0.00 0.01 0.01 77 1016.0
20260504233010 43 332 0.9 3.5 0.01 0.01 0.01 79 1015.9
20260504231508 42 332 2.6 5.2 0.01 0.01 0.01 78 1016.3
20260504230008 42 332 0.0 3.5 0.01 0.01 0.01 84 1016.1
20260504224508 40 332 1.7 12.2 0.01 0.01 0.01 82 1016.3
20260504223006 44 302 13.0 20.0 0.00 0.00 0.00 65 1016.2
20260504221505 51 337 4.3 11.3 0.00 0.00 0.00 44 1015.4
20260504220001 52 306 6.1 12.2 0.00 0.00 0.00 39 1015.6
20260504214600 53 296 1.7 6.1 0.00 0.00 0.00 39 1015.7
20260504213105 54 290 1.7 6.1 0.00 0.00 0.00 39 1015.8
20260504211605 53 292 4.3 11.3 0.00 0.00 0.00 47 1016.1
20260504210057 53 244 2.6 9.6 0.00 0.00 0.00 41 1016.2
20260504204602 52 296 4.3 13.9 0.00 0.00 0.00 44 1016.2
20260504203103 53 340 7.0 16.5 0.00 0.00 0.00 36 1016.0
20260504201552 56 308 7.0 12.2 0.00 0.00 0.00 36 1016.0
20260504200051 53 302 7.0 12.2 0.00 0.00 0.00 37 1016.1
20260504194549 51 336 7.8 13.9 0.00 0.00 0.00 34 1016.1
20260504193048 51 308 7.8 13.9 0.00 0.00 0.00 34 1016.1
20260504191547 53 294 7.8 18.2 0.00 0.00 0.00 30 1016.2
20260504190046 53 334 5.2 10.4 0.00 0.00 0.00 34 1016.4
20260504184543 54 327 3.5 8.7 0.00 0.00 0.00 32 1016.6
20260504183041 54 297 3.5 13.0 0.00 0.00 0.00 35 1017.0
20260504181538 53 294 5.2 17.4 0.00 0.00 0.00 38 1017.2
20260504180036 51 269 8.7 19.1 0.00 0.00 0.00 46 1017.5
20260504174534 49 305 7.0 12.2 0.00 0.00 0.00 51 1017.7
20260504173036 46 271 3.5 8.7 0.00 0.00 0.00 50 1017.7
20260504171532 46 292 6.1 13.0 0.00 0.00 0.00 53 1017.6
20260504081532 30 277 0.9 3.5 0.00 0.00 0.00 71 1018.3
20260504050007 36 277 0.0 5.2 0.00 0.00 0.00 59 1019.3
20260504044505 37 277 0.9 5.2 0.00 0.00 0.00 57 1019.4
20260504043005 37 277 0.9 3.5 0.00 0.00 0.00 57 1019.5
20260504041504 38 277 0.9 3.5 0.00 0.00 0.00 55 1019.5
20260504040004 39 277 2.6 6.1 0.00 0.00 0.00 53 1019.5
20260504034504 40 277 2.6 7.0 0.00 0.00 0.00 53 1019.5
20260504033007 41 277 4.3 7.0 0.00 0.00 0.00 52 1019.5
20260504031504 41 317 2.6 7.0 0.00 0.00 0.00 51 1019.4
20260504030002 43 334 0.9 3.5 0.00 0.00 0.00 48 1019.3
20260504024502 43 334 0.0 0.9 0.00 0.00 0.00 46 1019.3
20260504023002 44 334 0.0 3.5 0.00 0.00 0.00 44 1019.2
20260504021600 45 334 1.7 8.7 0.00 0.00 0.00 43 1019.2
20260504014606 46 331 1.7 5.2 0.00 0.00 0.00 41 1019.2
20260504013100 47 331 3.5 9.6 0.00 0.00 0.00 40 1018.9
20260504011559 48 337 4.3 13.0 0.00 0.00 0.00 38 1019.0
20260504010105 50 284 3.5 7.8 0.00 0.00 0.00 31 1018.8